McCook, NE

8:17 AM CDT on July 25, 2017 (GMT -0500)
McCook Municipal

Weather History for KMCK - October, 2013

Change the Weather History Date:

Thursday, October 3, 2013

  Actual Average Record
Temperature  
Mean Temperature 65 °F 56 °F  
Max Temperature 72 °F 72 °F 97 °F (1967)
Min Temperature 57 °F 41 °F 28 °F (2009)
Growing Degree Days 14 (Base 50)    
Moisture  
Dew Point 56 °F    
Average Humidity 81    
Maximum Humidity 100    
Minimum Humidity 56    
Precipitation  
Precipitation 0.00 in 0.06 in 0.57 in (1990)
Month to date precipitation 0.00 0.18  
Year to date precipitation 11.52 19.33  
Sea Level Pressure  
Sea Level Pressure 29.72 in    
Wind  
Wind Speed 11 mph (NE)    
Max Wind Speed 21 mph    
Max Gust Speed 26 mph    
Visibility 8 miles    
Events      
T = Trace of Precipitation, MM = Missing Value Source: NWS Daily Summary

Daily Weather History Graph

Daily Weather History Graph

Search for Another Location

Airport or City:

Trip Planner

Search our weather history database for the weather conditions in past years. The results will help you decide how hot, cold, wet, or windy it might be!

Date:

Astronomy

Oct. 03, 2013 Rise Set
Actual Time 7:41 AM CDT 7:20 PM CDT
Civil Twilight 7:13 AM CDT 7:47 PM CDT
Nautical Twilight 6:42 AM CDT 8:19 PM CDT
Astronomical Twilight 6:10 AM CDT 8:51 PM CDT
Moon 6:16 AM CDT (10/3) 6:30 PM CDT (10/3)
Length of Visible Light 12h 34m
Length of Day
11h 39m
Waning Crescent, 2% of the Moon is Illuminated
Oct 3
Waning Crescent
Oct 4
New
Oct 11
First Quarter
Oct 18
Full
Oct 26
Last Quarter

Hourly Weather History & Observations

Time (CDT) Temp. Dew Point Humidity Pressure Visibility Wind Dir Wind Speed Gust Speed Precip Events Conditions
12:53 AM 61.0 °F 45.0 °F 56% 29.75 in 10.0 mi NNE 10.4 mph - N/A   Clear
1:53 AM 59.0 °F 46.9 °F 64% 29.73 in 10.0 mi NE 6.9 mph - N/A   Clear
2:53 AM 57.9 °F 48.9 °F 72% 29.73 in 10.0 mi NE 9.2 mph - N/A   Clear
3:50 AM 57.2 °F 51.8 °F 82% 29.77 in 10.0 mi NE 9.2 mph - N/A   Mostly Cloudy
3:53 AM 57.9 °F 50.0 °F 75% 29.71 in 10.0 mi NE 9.2 mph - N/A   Mostly Cloudy
4:53 AM 59.0 °F 51.1 °F 75% 29.68 in 10.0 mi ENE 9.2 mph - N/A   Overcast
5:18 AM 59.0 °F 53.6 °F 82% 29.74 in 10.0 mi ENE 8.1 mph - N/A   Overcast
5:28 AM 60.8 °F 53.6 °F 77% 29.74 in 10.0 mi ENE 10.4 mph - N/A   Overcast
5:53 AM 60.1 °F 55.9 °F 86% 29.68 in 10.0 mi ENE 9.2 mph - N/A   Overcast
6:53 AM 61.0 °F 57.0 °F 87% 29.68 in 10.0 mi NE 9.2 mph - N/A   Overcast
7:53 AM 63.0 °F 60.1 °F 90% 29.69 in 6.0 mi ENE 3.5 mph - N/A   Overcast
8:50 AM 64.4 °F 62.6 °F 94% 29.75 in 3.0 mi ENE 5.8 mph - N/A   Overcast
8:53 AM 64.0 °F 62.1 °F 93% 29.70 in 3.0 mi East 5.8 mph - N/A   Overcast
9:31 AM 64.4 °F 60.8 °F 88% 29.76 in 6.0 mi ESE 16.1 mph - N/A   Overcast
9:53 AM 64.0 °F 61.0 °F 90% 29.72 in 6.0 mi SE 10.4 mph - N/A   Overcast
10:53 AM 64.9 °F 61.0 °F 87% 29.73 in 8.0 mi SE 10.4 mph - N/A   Overcast
11:53 AM 66.0 °F 61.0 °F 84% 29.72 in 10.0 mi East 9.2 mph - N/A   Overcast
12:17 PM 68.0 °F 60.8 °F 78% 29.75 in 10.0 mi ESE 11.5 mph - N/A   Overcast
12:53 PM 69.1 °F 61.0 °F 75% 29.71 in 10.0 mi ESE 10.4 mph - N/A   Overcast
1:23 PM 69.8 °F 60.8 °F 73% 29.75 in 10.0 mi East 6.9 mph - N/A   Overcast
1:53 PM 70.0 °F 59.0 °F 68% 29.69 in 10.0 mi East 5.8 mph - N/A   Overcast
2:21 PM 69.8 °F 60.8 °F 73% 29.73 in 10.0 mi ENE 5.8 mph - N/A   Overcast
2:41 PM 69.8 °F 60.8 °F 73% 29.73 in 10.0 mi ENE 6.9 mph - N/A   Overcast
2:53 PM 72.0 °F 60.1 °F 66% 29.68 in 10.0 mi NE 8.1 mph - N/A   Overcast
3:13 PM 64.4 °F 55.4 °F 73% 29.72 in 10.0 mi North 20.7 mph - N/A   Overcast
3:37 PM 64.4 °F 55.4 °F 73% 29.72 in 10.0 mi North 20.7 mph - N/A   Overcast
3:53 PM 64.0 °F 54.0 °F 70% 29.69 in 10.0 mi North 20.7 mph - N/A   Overcast
4:53 PM 64.9 °F 54.0 °F 68% 29.68 in 10.0 mi NNE 18.4 mph 26.5 mph N/A   Mostly Cloudy
5:03 PM 64.4 °F 53.6 °F 68% 29.72 in 10.0 mi NNE 17.3 mph 25.3 mph N/A   Mostly Cloudy
5:30 PM 60.8 °F 53.6 °F 77% 29.72 in 10.0 mi NNE 20.7 mph 25.3 mph N/A   Mostly Cloudy
5:48 PM 60.8 °F 53.6 °F 77% 29.74 in 10.0 mi NNE 18.4 mph - N/A   Mostly Cloudy
5:53 PM 60.1 °F 53.1 °F 78% 29.71 in 10.0 mi NNE 16.1 mph - N/A   Mostly Cloudy
6:53 PM 57.9 °F 52.0 °F 81% 29.70 in 10.0 mi NE 15.0 mph - N/A   Overcast
7:36 PM 57.2 °F 53.6 °F 88% 29.75 in 10.0 mi NNE 13.8 mph - N/A   Overcast
7:53 PM 57.0 °F 54.0 °F 89% 29.73 in 10.0 mi NNE 13.8 mph - N/A   Overcast
8:46 PM 57.2 °F 55.4 °F 94% 29.76 in 3.0 mi NE 13.8 mph 20.7 mph N/A   Overcast
8:53 PM 57.0 °F 55.0 °F 93% 29.73 in 2.0 mi NE 15.0 mph - N/A   Overcast
9:04 PM 57.2 °F 55.4 °F 94% 29.76 in 1.8 mi NE 11.5 mph - N/A   Overcast
9:27 PM 57.2 °F 55.4 °F 94% 29.75 in 2.0 mi NE 12.7 mph - N/A   Overcast
9:53 PM 57.0 °F 55.9 °F 96% 29.70 in 2.0 mi NE 16.1 mph - N/A   Overcast
10:03 PM 57.2 °F 55.4 °F 94% 29.74 in 1.8 mi NE 19.6 mph 25.3 mph N/A   Overcast
10:38 PM 57.2 °F 57.2 °F 100% 29.73 in 2.0 mi ENE 11.5 mph - N/A   Overcast
11:53 PM 59.0 °F 57.9 °F 96% 29.66 in 4.0 mi ENE 12.7 mph - N/A   Overcast